Location: Zlin
(49.2330°N, 17.6670°E)
Time: 03:09:03
(UTC+01:00)

ISS - Pass Details

Date: 03 October 2020
Orbit: 417 x 420 km, 51.6° (Epoch: 25 October)

Event Time Altitude Azimuth Distance (km) Brightness Sun altitude
Rises 21:08:46 0° 281° (W) 2,369 1.2 -27.1°
Reaches altitude 10° 21:11:51 10° 251° (WSW) 1,500 -0.5 -27.5°
Enters shadow 21:12:12 11° 245° (WSW) 1,444 -0.6 -27.6°
